Home > Weather > Paramus > Past weeks

Flag for USA Past Weather in Paramus, New Jersey, USA — Yesterday and Last 2 Weeks

Now
77 °F

Passing clouds.


Feels Like: 79 °F
Forecast: 72 / 85 °F
Wind: 3 mph from Southwest

Location: Teterboro Airport

Current Time: Jul 29, 2016 at 11:39:55 PM

Latest Report: Jul 29, 2016 at 10:51 PM


Visibility: 10 mi

Pressure: 29.90 "Hg

Humidity: 77%

Dew Point: 69 °F

Location of ParamusLocation

Past Weather in Paramus — Graph

°F

Paramus Temperature Yesterday

Maximum temperature yesterday: 93 °F (at 2:51 PM)
Minimum temperature yesterday: 74 °F (at 5:51 AM)
Average temperature yesterday: 83 °F

High & Low Weather Summary for the Past Weeks

 TemperatureHumidityPressure
High97 °F (Jul 22, 3:51 PM)94% (Jul 25, 6:58 PM)30.23 "Hg (Jul 25, 6:58 PM)
Low67 °F (Jul 20, 5:51 AM)22% (Jul 23, 4:51 PM)29.76 "Hg (Jul 22, 6:51 PM)
Average82 °F55%29.95 "Hg
* Reported Jul 14 9:51 PM — Jul 29 9:51 PM, Paramus, Weather by CustomWeather, © 2016

Note: Actual official high and low records may vary slightly from our data, if they occured in-between our weather recording intervals... More about our weather records

Advertising

Paramus Weather History for the Previous 24 Hours

Scroll right to see more
 ConditionsComfort  
Time TempWeatherWind HumidityBarometerVisibility
9:51 PM
Fri, Jul 29
78 °FClear.5 mph69%29.89 "Hg10 mi
8:51 PM80 °FSunny.3 mph67%29.87 "Hg10 mi
7:51 PM81 °FLight rain. Mostly cloudy.5 mph67%29.86 "Hg10 mi
6:51 PM84 °FPassing clouds.8 mph59%29.84 "Hg10 mi
5:51 PM86 °FSunny.7 mph53%29.82 "Hg10 mi
4:51 PM85 °FPassing clouds.5 mph55%29.81 "Hg10 mi
3:51 PM85 °FScattered clouds.7 mph55%29.81 "Hg10 mi
2:51 PM84 °FPartly sunny.7 mph55%29.81 "Hg10 mi
1:51 PM83 °FPartly sunny.5 mph57%29.81 "Hg10 mi
12:51 PM81 °FScattered clouds.7 mph60%29.83 "Hg10 mi
11:51 AM79 °FPassing clouds.9 mph67%29.84 "Hg10 mi
10:51 AM76 °FScattered clouds.8 mph77%29.85 "Hg10 mi
9:51 AM72 °FOvercast.6 mph84%29.85 "Hg8 mi
8:58 AM71 °FLight rain. Fog.3 mph87%29.86 "Hg6 mi
8:51 AM71 °FLight rain. Fog.5 mph87%29.86 "Hg3 mi
7:51 AM71 °FRain. Fog.6 mph87%29.84 "Hg4 mi
6:51 AM71 °FRain. Fog.6 mph90%29.83 "Hg4 mi
6:01 AM71 °FRain. Fog.8 mph90%29.82 "Hg4 mi
5:51 AM72 °FLight rain. Fog.7 mph87%29.83 "Hg5 mi
4:51 AM72 °FRain. Fog.8 mph93%29.81 "Hg3 mi
3:58 AM72 °FRain. Fog.6 mph93%29.83 "Hg9 mi
3:01 AM72 °FRain. Fog.5 mph91%29.83 "Hg2 mi
2:51 AM74 °FRain. Fog.6 mph85%29.84 "Hg3 mi
1:51 AM77 °FLight rain. Mostly cloudy.No wind82%29.85 "Hg10 mi
12:51 AM78 °FLight rain. Overcast.5 mph79%29.85 "Hg10 mi
11:51 PM
Thu, Jul 28
78 °FLight rain. Overcast.No wind76%29.86 "Hg10 mi
Weather by CustomWeather, © 2016

See weather overviewHow to use our weather pages